Meteo pe oră la Al Hufuf

Astăzi, 24 Ianuarie, Duminică

Timp Temperatura Precipitaţii Vânt Presiune Umiditate
00:00 +9°C° 0 mm 3 m/s 753 mmHg 38%
01:00 +9°C° 0 mm 3 m/s 753 mmHg 57%
02:00 +9°C° 0 mm 3 m/s 753 mmHg 57%
03:00 +9°C° 0 mm 3 m/s 753 mmHg 58%
04:00 +9°C° 0 mm 3 m/s 753 mmHg 52%
05:00 +9°C° 0 mm 3 m/s 753 mmHg 46%
06:00 +9°C° 0 mm 3 m/s 753 mmHg 41%
07:00 +11°C° 0 mm 3 m/s 754 mmHg 34%
08:00 +12°C° 0 mm 3 m/s 754 mmHg 28%
09:00 +14°C° 0 mm 3 m/s 754 mmHg 21%
10:00 +17°C° 0 mm 3 m/s 754 mmHg 18%
11:00 +18°C° 0 mm 3 m/s 754 mmHg 15%
12:00 +20°C° 0 mm 3 m/s 753 mmHg 12%
13:00 +21°C° 0 mm 3 m/s 753 mmHg 11%
14:00 +21°C° 0 mm 3 m/s 752 mmHg 10%
15:00 +22°C° 0 mm 3 m/s 752 mmHg 9%
16:00 +20°C° 0 mm 3 m/s 752 mmHg 12%
17:00 +18°C° 0 mm 3 m/s 752 mmHg 14%
18:00 +14°C° 0 mm 3 m/s 752 mmHg 17%
19:00 +14°C° 0 mm 3 m/s 752 mmHg 23%
20:00 +14°C° 0 mm 2 m/s 753 mmHg 29%
21:00 +13°C° 0 mm 2 m/s 753 mmHg 35%
22:00 +12°C° 0 mm 2 m/s 753 mmHg 41%
23:00 +10°C° 0 mm 2 m/s 752 mmHg 47%

Mâine, 25 Ianuarie, Luni

Timp Temperatura Precipitaţii Vânt Presiune Umiditate
00:00 +10°C° 0 mm 2 m/s 752 mmHg 53%
01:00 +10°C° 0 mm 2 m/s 752 mmHg 52%
02:00 +10°C° 0 mm 2 m/s 752 mmHg 50%
03:00 +10°C° 0 mm 2 m/s 752 mmHg 48%
04:00 +10°C° 0 mm 2 m/s 752 mmHg 42%
05:00 +10°C° 0 mm 3 m/s 752 mmHg 36%
06:00 +10°C° 0 mm 3 m/s 752 mmHg 30%
07:00 +12°C° 0 mm 3 m/s 753 mmHg 26%
08:00 +14°C° 0 mm 3 m/s 753 mmHg 22%
09:00 +17°C° 0 mm 4 m/s 754 mmHg 18%
10:00 +19°C° 0 mm 4 m/s 754 mmHg 16%
11:00 +21°C° 0 mm 4 m/s 753 mmHg 13%
12:00 +23°C° 0 mm 4 m/s 753 mmHg 11%
13:00 +23°C° 0 mm 4 m/s 752 mmHg 11%
14:00 +25°C° 0 mm 4 m/s 752 mmHg 11%
15:00 +25°C° 0 mm 4 m/s 752 mmHg 11%
16:00 +22°C° 0 mm 3 m/s 752 mmHg 14%
17:00 +20°C° 0 mm 3 m/s 752 mmHg 17%
18:00 +18°C° 0 mm 3 m/s 752 mmHg 21%
19:00 +16°C° 0 mm 3 m/s 752 mmHg 31%
20:00 +14°C° 0 mm 3 m/s 753 mmHg 41%
21:00 +14°C° 0 mm 2 m/s 753 mmHg 51%
22:00 +13°C° 0 mm 2 m/s 753 mmHg 56%
23:00 +13°C° 0 mm 2 m/s 752 mmHg 61%

Poimâine, 26 Ianuarie, Marţi

Timp Temperatura Precipitaţii Vânt Presiune Umiditate
00:00 +12°C° 0 mm 1 m/s 752 mmHg 66%
01:00 +12°C° 0 mm 1 m/s 752 mmHg 61%
02:00 +12°C° 0 mm 2 m/s 752 mmHg 56%
03:00 +12°C° 0 mm 2 m/s 752 mmHg 51%
04:00 +12°C° 0 mm 2 m/s 752 mmHg 47%
05:00 +12°C° 0 mm 2 m/s 752 mmHg 44%
06:00 +12°C° 0 mm 2 m/s 752 mmHg 40%
07:00 +15°C° 0 mm 2 m/s 753 mmHg 34%
08:00 +17°C° 0 mm 2 m/s 753 mmHg 28%
09:00 +20°C° 0 mm 2 m/s 753 mmHg 23%
10:00 +23°C° 0 mm 2 m/s 753 mmHg 20%
11:00 +24°C° 0 mm 3 m/s 753 mmHg 18%
12:00 +26°C° 0 mm 3 m/s 752 mmHg 16%
13:00 +27°C° 0 mm 3 m/s 752 mmHg 15%
14:00 +27°C° 0 mm 3 m/s 751 mmHg 15%
15:00 +27°C° 0 mm 3 m/s 751 mmHg 15%
16:00 +25°C° 0 mm 3 m/s 751 mmHg 19%
17:00 +22°C° 0 mm 3 m/s 751 mmHg 22%
18:00 +19°C° 0 mm 3 m/s 751 mmHg 26%
19:00 +18°C° 0 mm 3 m/s 751 mmHg 34%
20:00 +16°C° 0 mm 3 m/s 752 mmHg 42%
21:00 +15°C° 0 mm 2 m/s 752 mmHg 50%
22:00 +14°C° 0 mm 2 m/s 752 mmHg 54%
23:00 +13°C° 0 mm 1 m/s 751 mmHg 57%

27 Ianuarie, Miercuri

Timp Temperatura Precipitaţii Vânt Presiune Umiditate
00:00 +12°C° 0 mm 1 m/s 751 mmHg 61%
01:00 +12°C° 0 mm 1 m/s 751 mmHg 60%
02:00 +12°C° 0 mm 1 m/s 751 mmHg 60%
03:00 +12°C° 0 mm 1 m/s 751 mmHg 59%
04:00 +12°C° 0 mm 1 m/s 751 mmHg 54%
05:00 +12°C° 0 mm 1 m/s 751 mmHg 49%
06:00 +12°C° 0 mm 2 m/s 751 mmHg 44%
07:00 +15°C° 0 mm 2 m/s 751 mmHg 37%
08:00 +18°C° 0 mm 2 m/s 752 mmHg 30%
09:00 +21°C° 0 mm 2 m/s 752 mmHg 23%
10:00 +23°C° 0 mm 1 m/s 752 mmHg 20%
11:00 +25°C° 0 mm 1 m/s 751 mmHg 18%
12:00 +27°C° 0 mm 1 m/s 751 mmHg 15%
13:00 +27°C° 0 mm 1 m/s 750 mmHg 14%
14:00 +28°C° 0 mm 1 m/s 750 mmHg 13%
15:00 +29°C° 0 mm 1 m/s 749 mmHg 13%
16:00 +26°C° 0 mm 2 m/s 749 mmHg 16%
17:00 +22°C° 0 mm 3 m/s 749 mmHg 19%
18:00 +20°C° 0 mm 4 m/s 749 mmHg 21%
19:00 +19°C° 0 mm 3 m/s 749 mmHg 25%
20:00 +17°C° 0 mm 3 m/s 750 mmHg 28%
21:00 +16°C° 0 mm 3 m/s 750 mmHg 32%
22:00 +16°C° 0 mm 3 m/s 749 mmHg 35%
23:00 +15°C° 0 mm 2 m/s 749 mmHg 39%

28 Ianuarie, Joi

Timp Temperatura Precipitaţii Vânt Presiune Umiditate
00:00 +15°C° 0 mm 2 m/s 749 mmHg 42%
01:00 +15°C° 0 mm 2 m/s 749 mmHg 42%
02:00 +14°C° 0 mm 2 m/s 749 mmHg 41%
03:00 +14°C° 0 mm 2 m/s 748 mmHg 41%
04:00 +14°C° 0 mm 2 m/s 749 mmHg 41%
05:00 +14°C° 0 mm 2 m/s 749 mmHg 40%
06:00 +14°C° 0 mm 2 m/s 749 mmHg 39%
07:00 +16°C° 0 mm 3 m/s 749 mmHg 34%
08:00 +19°C° 0 mm 3 m/s 750 mmHg 29%
09:00 +21°C° 0 mm 4 m/s 750 mmHg 24%
10:00 +23°C° 0 mm 4 m/s 750 mmHg 21%
11:00 +26°C° 0 mm 4 m/s 749 mmHg 18%
12:00 +28°C° 0 mm 4 m/s 749 mmHg 16%
13:00 +29°C° 0 mm 4 m/s 748 mmHg 15%
14:00 +30°C° 0 mm 3 m/s 748 mmHg 14%
15:00 +30°C° 0 mm 3 m/s 747 mmHg 14%
16:00 +28°C° 0 mm 3 m/s 747 mmHg 16%
17:00 +26°C° 0 mm 4 m/s 747 mmHg 19%
18:00 +22°C° 0 mm 4 m/s 747 mmHg 21%
19:00 +22°C° 0 mm 4 m/s 747 mmHg 22%
20:00 +21°C° 0 mm 4 m/s 748 mmHg 24%
21:00 +20°C° 0 mm 4 m/s 748 mmHg 25%

29 Ianuarie, Vineri

Timp Temperatura Precipitaţii Vânt Presiune Umiditate
Arată mai mult

Formular de consimțământ

Meteoprog și furnizorii noștri de servicii pot stoca și accesa date personale, precum cookies, identificatori de dispozitiv sau alte tehnologii similare pe dispozitivul dumneavoastră și procesa astfel de date pentru a personaliza conținutul și reclamele, dar și pentru a oferi caracteristici de social media și pentru a analiza traficul.

  • Stocarea și/sau accesarea informațiilor pe dispozitivul dumneavoastră

    Cookies, identificatori de dispozitiv sau alte informații pot fi stocate sau accesate pe dispozitiv în scopurile indicate mai sus.

  • Reclame și conținut personalizat, evaluarea reclamelor și a conținutului, informații despre audiențe și dezvoltarea produselor

    Reclamele și conținutul pot fi personalizate pe baza unui profil. Pot fi adăugate date suplimentare pentru a personaliza mai bine reclamele și conținutul. Performanța reclamelor și conținutului poate fi măsurată. Pot fi obținute informații despre utilizatorii care au văzut reclamele și conținutul. Aceste date pot fi utilizate pentru a dezvolta sau îmbunătăți experiența utilizatorilor, sistemele și software-ul.

Dând clic pe ‘Sunt de acord’, permiteți utilizarea cookie-urilor menționate, a identificatorilor de dispozitiv, balizelor web sau altor tehnologii similare. Setările pot fi modificate din browser-ul dispozitivului dumneavoastră.

În anumite scopuri, interesele legitime pot prima asupra consimțământului. Puteți citi mai multe informații în acest sens în Politica privind Confidențialitatea Datelor și Cookie.